Owensboro, KY

7:04 AM CST on November 22, 2017 (GMT -0600)
Owensboro-Daviess County

Weather History for KOWB - October, 2012

Change the Weather History Date:

Friday, October 26, 2012

  Actual Average Record
Temperature  
Mean Temperature 52 °F -  
Max Temperature 59 °F 67 °F 86 °F (1940)
Min Temperature 44 °F 40 °F 24 °F (1942)
Degree Days  
Heating Degree Days 14    
Growing Degree Days 2 (Base 50)    
Moisture  
Dew Point 44 °F    
Average Humidity 88    
Maximum Humidity 100    
Minimum Humidity 75    
Precipitation  
Precipitation 0.58 in - - ()
Sea Level Pressure  
Sea Level Pressure 30.16 in    
Wind  
Wind Speed 13 mph (North)    
Max Wind Speed 21 mph    
Max Gust Speed 24 mph    
Visibility 6 miles    
Events Rain    
Averages and records for this station are not official NWS values.
T = Trace of Precipitation, MM = Missing Value Source: NWS Daily Summary

Daily Weather History Graph

Daily Weather History Graph

Search for Another Location

Airport or City:

Trip Planner

Search our weather history database for the weather conditions in past years. The results will help you decide how hot, cold, wet, or windy it might be!

Date:

Astronomy

Oct. 26, 2012 Rise Set
Actual Time 7:08 AM CDT 5:56 PM CDT
Civil Twilight 6:41 AM CDT 6:23 PM CDT
Nautical Twilight 6:10 AM CDT 6:53 PM CDT
Astronomical Twilight 5:40 AM CDT 7:24 PM CDT
Moon 4:09 PM CDT (10/26) 4:06 AM CDT (10/26)
Length of Visible Light 11h 41m
Length of Day
10h 48m
Waxing Gibbous, 91% of the Moon is Illuminated
Oct 26
Waxing Gibbous
Oct 29
Full
Nov 6
Last Quarter
Nov 13
New
Nov 20
First Quarter

Hourly Weather History & Observations

Time (CDT) Temp. Windchill Dew Point Humidity Pressure Visibility Wind Dir Wind Speed Gust Speed Precip Events Conditions
12:32 AM 59.0 °F - 51.8 °F 77% 30.03 in 10.0 mi NW 20.7 mph - N/A   Mostly Cloudy
12:56 AM 56.8 °F - 50.9 °F 80% 30.04 in 10.0 mi NW 16.1 mph - N/A   Mostly Cloudy
1:56 AM 54.9 °F - 46.9 °F 75% 30.05 in 10.0 mi NNW 13.8 mph - N/A   Overcast
2:44 AM 53.6 °F - 46.4 °F 77% 30.08 in 10.0 mi NNW 15.0 mph - N/A   Overcast
2:56 AM 52.9 °F - 45.9 °F 77% 30.08 in 10.0 mi North 15.0 mph - N/A   Mostly Cloudy
3:40 AM 51.8 °F - 46.4 °F 82% 30.10 in 10.0 mi NNW 15.0 mph - N/A   Overcast
3:56 AM 50.9 °F - 45.9 °F 83% 30.10 in 10.0 mi NNW 17.3 mph - N/A   Overcast
4:36 AM 50.0 °F - 44.6 °F 82% 30.12 in 10.0 mi North 12.7 mph - N/A   Overcast
4:56 AM 50.0 °F - 45.0 °F 83% 30.12 in 10.0 mi North 12.7 mph - N/A   Overcast
5:19 AM 48.2 °F - 42.8 °F 82% 30.13 in 10.0 mi North 11.5 mph 24.2 mph N/A   Overcast
5:56 AM 48.9 °F - 45.0 °F 86% 30.13 in 6.0 mi North 11.5 mph - 0.01 in Rain Light Rain
6:56 AM 46.9 °F - 45.0 °F 93% 30.14 in 3.0 mi North 11.5 mph 17.3 mph 0.03 in Rain Heavy Rain
7:22 AM 46.4 °F 41.5 °F 44.6 °F 93% 30.15 in 7.0 mi North 10.4 mph - 0.01 in Rain Light Rain
9:08 AM 46.4 °F 40.7 °F 44.6 °F 93% 30.21 in 3.0 mi North 12.7 mph 20.7 mph 0.00 in Rain Light Rain
9:56 AM 45.9 °F 40.0 °F 43.9 °F 93% 30.21 in 2.5 mi North 12.7 mph 20.7 mph 0.04 in Rain Rain
10:08 AM 46.4 °F 41.9 °F 44.6 °F 93% 30.22 in 3.0 mi North 9.2 mph - 0.01 in Rain Light Rain
10:56 AM 45.9 °F 42.3 °F 43.9 °F 93% 30.21 in 2.0 mi North 6.9 mph - 0.05 in Rain Heavy Rain
11:56 AM 45.0 °F 40.1 °F 43.9 °F 96% 30.21 in 1.5 mi NNW 9.2 mph - 0.11 in Rain Heavy Rain
12:11 PM 44.6 °F 39.7 °F 44.6 °F 100% 30.21 in 0.8 mi North 9.2 mph - 0.03 in Rain Heavy Rain
12:24 PM 44.6 °F 38.8 °F 44.6 °F 100% 30.21 in 1.0 mi NNW 11.5 mph - 0.05 in Rain Rain
12:56 PM 45.0 °F 39.7 °F 43.9 °F 96% 30.21 in 2.0 mi NNW 10.4 mph - 0.10 in Rain Rain
1:03 PM 44.6 °F 38.4 °F 44.6 °F 100% 30.20 in 2.0 mi North 12.7 mph - 0.01 in Rain Heavy Rain
1:56 PM 45.9 °F 40.4 °F 43.9 °F 93% 30.19 in 2.0 mi North 11.5 mph - 0.08 in Rain Light Rain
2:56 PM 45.9 °F 40.4 °F 43.9 °F 93% 30.17 in 2.0 mi North 11.5 mph - 0.11 in Rain Light Rain
2:58 PM 46.4 °F 40.1 °F 44.6 °F 93% 30.17 in 1.5 mi North 15.0 mph - 0.00 in Rain Heavy Rain
3:56 PM 45.9 °F 41.2 °F 43.0 °F 90% 30.18 in 5.0 mi North 9.2 mph - 0.03 in Rain Light Rain
4:17 PM 46.4 °F 41.5 °F 42.8 °F 87% 30.17 in 7.0 mi NNE 10.4 mph - 0.00 in   Overcast
4:19 PM 46.4 °F 41.9 °F 44.6 °F 93% 30.17 in 7.0 mi North 9.2 mph - 0.00 in   Overcast
4:56 PM 45.9 °F 40.4 °F 43.0 °F 90% 30.19 in 7.0 mi North 11.5 mph - 0.00 in Rain Light Rain
4:58 PM 46.4 °F 41.9 °F 42.8 °F 87% 30.18 in 7.0 mi North 9.2 mph - 0.00 in Rain Light Rain
5:43 PM 46.4 °F 40.7 °F 44.6 °F 93% 30.19 in 1.0 mi North 12.7 mph - 0.01 in Rain Rain
5:56 PM 45.0 °F 40.1 °F 43.0 °F 93% 30.19 in 2.0 mi North 9.2 mph - 0.01 in Rain Light Rain
6:56 PM 45.9 °F 42.3 °F 41.9 °F 86% 30.20 in 7.0 mi North 6.9 mph - 0.01 in   Overcast
7:56 PM 45.9 °F 42.3 °F 41.9 °F 86% 30.20 in 10.0 mi Variable 6.9 mph - 0.00 in   Overcast
8:56 PM 46.9 °F - 41.9 °F 83% 30.20 in 10.0 mi North 6.9 mph - N/A   Mostly Cloudy
9:56 PM 46.9 °F - 41.9 °F 83% 30.19 in 10.0 mi North 6.9 mph - N/A   Overcast
11:56 PM 46.9 °F - 39.9 °F 77% 30.17 in 10.0 mi North 11.5 mph - N/A   Overcast